Location: Saint-Palais-sur-Mer
(45.6429°N, 1.0859°W)
Time: 09:51:26
(UTC+01:00)

Vanguard 3 - Visible Passes

Search period start: 15 February 2026 00:00
Search period end: 25 February 2026 00:00
Orbit: 507 x 3205 km, 33.3° (Epoch: 15 February)

Date Brightness Start Highest point End Pass type
(mag) Time Alt. Az. Time Alt. Az. Time Alt. Az.
15 Feb 8.7 20:57:11 10° SW 20:59:58 16° SSW 20:59:58 16° SSW visible
16 Feb 8.8 19:34:26 10° SW 19:39:15 22° S 19:42:47 10° SE visible
17 Feb 8.6 20:24:21 10° WSW 20:28:16 19° SSW 20:30:05 15° SSE visible
18 Feb 9.0 19:01:09 10° WSW 19:07:16 26° S 19:11:27 10° SE visible
18 Feb 9.1 21:15:03 10° SW 21:17:05 12° SSW 21:17:06 12° SSW visible
19 Feb 8.9 19:51:15 10° WSW 19:56:18 22° SSW 19:59:58 10° SE visible
20 Feb 9.0 20:41:55 10° WSW 20:45:06 15° SSW 20:47:16 11° S visible
21 Feb 9.1 19:17:53 10° WSW 19:24:16 25° SSW 19:28:35 10° SE visible
22 Feb 9.2 20:08:37 10° WSW 20:13:03 17° SSW 20:16:26 10° SSE visible
24 Feb 9.4 19:35:05 10° WSW 19:40:55 21° SSW 19:45:05 10° SSE visible
